106P/Schuster (1999)

Japanese version
Home page
Total 6,336 html files since Dec. 4, 1995
Updated on September 29, 2004

---------------------------------------------------------------------

* Profile

* Pictures

* Orbital Elements

   The following improved orbital elements by Kenji Muraoka, are 
  from 141 observations  1977 to 2000, including 9 Planets, Moon 
  and 5 minor planets perturbations and non-gravitational effect 
  of style II.   The mean residual is +/- 0.75 arc seconds.

      Epoch  =  1999 Dec.  8.0  TT       JDT = 2451520.5
          T  =  1999 Dec. 16.22615       +/- 0.00046 (m.e.) TT
       Peri. =  355.85857                +/- 0.00031
       Node  =   50.58924                +/- 0.00005   (2000.0)
       Incl. =   20.13872                +/- 0.00002
          q  =    1.5497182              +/- 0.0000023 AU
          e  =    0.5879217              +/- 0.0000006
          a  =    3.7607372              +/- 0.0000020 AU
          n  =    0.13514333             +/- 0.00000011
          P  =    7.293                  +/- 0.0000059  years
         A1  =   +0.096                  +/- 0.022
         A2  =   +0.00716                +/- 0.00038

* Finding Charts

* Magnitudes Graph

        m1 = 9 + 5 log d + 25 log r(t + 15)

---------------------------------------------------------------------

The orbital elements are calculated by Kenji Muraoka.
The charts are made with StellaNavigator Ver.2.0 for Windows (AstroArts / ASCII).
The magnitudes graphs are made with Comet for Windows.

---------------------------------------------------------------------

Copyright(C) 1995-2008 Seiichi Yoshida (comet@aerith.net). All rights reserved.